sat.trackr.live / text

‹ back to catalog

STARLINK-3856

NORAD 52459 · 2022-049J

PAYLOAD ACTIVE UNKNOWN

§ Identity

Operator
Country
US
Launch date
2022-05-06
Launch site
AFETR
Launch vehicle
Mass (kg)
RCS (m²)

Purposes: comms

External: N2YO · Heavens-Above · Gunter

§ Orbital elements

Epoch: 2026-05-25T04:23:59.771616Z

Period
95.44 min
Inclination
53.2129°
Eccentricity
0.0001372
Mean motion
15.08843367 rev/d
Perigee alt
538.8 km
Apogee alt
540.7 km
Semi-major
6,917.9 km
B*
-7.6568e-6
RAAN
75.7269°
Arg perigee
83.6081°
Mean anomaly
276.5067°
Rev number
22,379

§ Raw data

STARLINK-38561 52459U 22049J   26145.18333069 -.00000410  00000+0 -76568-5 0  99962 52459  53.2129  75.7269 0001372  83.6081 276.5067 15.08843367223795

JSON: /api/v1/satellites/52459 · /tle

For live sub-satellite position, see the globe view (requires WebGL).

§ Visibility from observer

Set your observer location to see the next 7 days of passes ≥ 10°. The values pass through the URL so the page stays shareable.

No JS? Fill the form by hand. The geolocation button needs JavaScript.